Location: Izdebno
(52.6670°N, 16.2170°E)
Time: 09:50:09
(UTC+01:00)

Vanguard 2 - Pass Details

Date: 24 September 2023
Orbit: 552 x 2923 km, 32.9° (Epoch: 07 December)

Event Time Altitude Azimuth Distance (km) Brightness Sun altitude
Rises 19:57:45 0° 211° (SSW) 6,168 12.4 -11.1°
Reaches altitude 10° 20:04:34 10° 193° (SSW) 4,675 11.5 -12.1°
Maximum altitude 20:10:38 15° 164° (SSE) 3,740 10.7 -12.9°
Enters shadow 20:15:01 11° 137° (SE) 3,630 10.4 -13.6°
